Portada
METAR-TAF:

METAR-TAF

Aeropuertos :

Matagami, Quebec, Canadá

latitud: 49-46N, longitud: 077-49W, altitud: 281 m

Observación

El informe se hizo hace 7 minutos, a las 16:58 UTC
Viento 17 kt del noroeste con ráfagas de 23 kt
Temperatura -11°C
Humedad 78%
Presión 1008 hPa
Visibilidad: 9.7 km
Cielo nuboso a una altura de 2100 ft
Cielo cubierto a una altura de 2800 ft
poca nieve

METAR: CYNM 171658Z AUTO 32017G23KT 6SM -SN BKN021 OVC028 M11/M14 A2977 RMK SLP103

Hora: 12:05 (17:05 UTC)


TAF: falta

Observaciones y pronósticos meteorológicos de más de 4000 aeropuertos (mensajes METAR y TAF).

Los puntos amarillos y rojos representan las estaciones disponibles.

Ponga el ratón en el punto deseado para ver el nombre de la estación.

Haga clic para ver las observaciones y los pronósticos meteorológicos.

Para cambiar el mapa : haga clic en los botones verdes con una cruz de color negro para hacer un zoom, en el botón verde con un guión para alejar o en las flechas verdes para mapas adyacentes.


METAR-TAF: